CAPE
0 0 0 0 0 0 0 0 0 0 0 0 0 0 0 0 0 0 0 0 0 0 0 0 0 0 0 0 0 0 0 0 0 0 0 0 0 0 0 0 0 0 0 0
0 0 0 0 0 0 0 0 0 0 0 0 0 0 0 0 0 0 0 0 0 0 0 0 0 0 0 0 0 0 0 0 0 0 0 0 0 0 0 0 0 0 0 0
0 0 0 0 0 0 0 0 0 0 0 0 0 0 0 0 0 0 0 0 0 0 0 0 0 0 0 0 0 0 0 0 0 0 0 0 0 0 0 0 0 0 0 0
0 0 0 0 0 0 0 0 0 0 0 0 0 0 0 0 0 0 0 0 0 0 0 0 0 0 0 0 0 0 0 0 0 0 0 0 0 0 0 0 0 0 0 0
0 0 0 0 0 0 0 0 0 0 0 0 0 0 0 0 0 0 0 0 0 0 0 0 0 0 0 0 0 0 0 0 0 0 0 0 0 0 0 0 0 0 0 0
0 0 0 0 0 0 0 0 0 0 0 0 0 0 0 0 0 0 0 0 0 0 0 0 0 0 0 0 0 0 0 0 0 0 0 0 0 0 0 0 0 0 0 0
0 0 0 0 0 0 0 0 0 0 0 0 0 0 0 0 0 0 0 0 0 0 0 0 0 0 0 0 0 0 0 0 0 0 0 0 0 0 0 0 0 0 0 0
0 0 0 0 0 0 0 0 0 0 0 0 0 0 0 0 0 0 0 0 0 0 0 0 0 0 0 0 0 0 0 0 0 0 0 0 0 0 0 0 0 0 0 0
0 0 0 0 0 0 0 0 0 0 0 0 0 0 0 0 0 0 0 0 0 0 0 0 0 0 0 0 0 0 0 0 0 0 0 0 0 0 0 0 0 0 0 0
0 0 0 0 0 0 0 0 0 0 0 0 0 0 0 0 0 0 0 0 0 0 0 0 0 0 0 0 0 0 0 0 0 0 0 0 0 0 0 0 0 0 0 0
0 0 0 0 0 0 0 0 1 3 0 0 0 0 0 0 0 0 0 0 0 0 0 0 0 0 0 0 0 0 0 0 0 0 0 0 0 0 0 0 0 0 0 0
0 0 0 0 0 0 0 0 0 7 0 5 12 0 0 0 0 0 0 0 0 0 0 0 0 0 0 0 0 0 0 0 0 0 0 0 0 0 0 0 0 0 0 0
0 0 0 0 0 0 0 0 0 0 0 0 2 0 0 0 0 0 0 0 0 0 0 0 0 0 0 0 0 0 0 0 0 0 0 0 0 0 0 0 0 0 0 0
0 0 0 0 0 0 0 0 0 0 0 0 0 0 0 0 0 0 0 0 0 0 0 0 0 0 0 0 0 0 0 0 0 0 0 0 0 0 0 0 0 0 0 0
0 0 0 0 0 0 0 0 0 0 0 0 0 0 0 0 0 0 0 0 0 0 0 0 0 0 0 0 0 0 0 0 0 0 0 0 0 0 0 0 0 0 0 0
0 0 0 0 0 0 0 0 0 0 0 0 0 0 0 0 0 0 0 0 0 0 0 0 0 0 0 0 0 0 0 0 0 0 0 0 0 0 0 0 0 0 0 0
0 0 0 0 0 0 0 0 0 0 0 0 0 0 0 0 0 0 0 0 0 0 0 0 0 0 0 0 0 0 0 0 0 0 0 0 0 0 0 0 0 0 0 0
0 0 0 0 0 0 0 0 0 0 0 0 0 0 0 0 0 0 0 0 0 0 0 0 0 0 0 0 0 0 0 0 0 0 0 0 0 0 0 0 0 0 0 0
0 0 0 0 0 0 0 0 0 0 0 0 0 0 0 0 0 0 0 0 0 0 0 0 0 0 0 0 0 0 0 0 0 0 0 0 0 0 0 0 0 0 0 0
0 0 0 0 0 0 0 0 0 0 0 0 0 0 0 0 0 0 0 0 0 0 0 0 0 0 0 0 0 0 0 0 0 0 0 0 0 0 0 0 0 0 0 0
0 0 0 0 0 0 0 0 0 0 0 0 0 0 0 0 0 0 0 0 0 0 0 0 0 0 0 0 0 0 0 0 0 0 0 0 0 0 0 0 0 0 0 0
0 0 0 0 0 0 0 0 0 0 0 0 0 0 0 0 0 0 0 0 0 0 0 0 0 0 0 0 0 0 0 0 0 0 0 0 0 0 0 0 0 0 0 0
0 0 0 0 0 0 0 0 0 0 0 0 0 0 0 0 0 0 0 0 0 0 0 0 0 0 0 0 0 0 0 0 0 0 0 0 0 0 0 0 0 0 0 0
0 0 0 0 0 0 0 0 0 0 0 0 0 0 0 0 0 0 0 0 0 0 0 0 0 0 0 0 0 0 0 0 0 0 0 0 0 0 0 0 0 0 0 0
0 0 0 0 0 0 0 0 0 0 0 0 0 0 0 0 0 0 0 0 0 0 0 0 0 0 0 0 0 0 0 0 0 0 0 0 0 0 0 0 0 0 0 0
0 0 0 0 0 0 0 0 0 0 0 0 0 0 0 0 0 0 0 0 0 0 0 0 0 0 0 0 0 0 0 0 0 0 0 0 0 0 0 0 0 0 0 0
CIN
0 0 0 0 0 0 0 0 0 0 0 0 0 0 0 0 0 0 0 0 0 0 0 0 0 0 0 0 0 0 0 0 0 0 0 0 0 0 0 0 0 0 0 0
0 0 0 0 0 0 0 0 0 0 0 0 0 0 0 0 0 0 0 0 0 0 0 0 0 0 0 0 0 0 0 0 0 0 0 0 0 0 0 0 0 0 0 0
0 0 0 0 0 0 0 0 0 0 0 0 0 0 0 0 0 0 0 0 0 0 0 0 0 0 0 0 0 0 0 0 0 0 0 0 0 0 0 0 0 0 0 0
0 0 0 0 0 0 0 0 0 0 0 0 0 0 0 0 0 0 0 0 0 0 0 0 0 0 0 0 0 0 0 0 0 0 0 0 0 0 0 0 0 0 0 0
0 0 0 0 0 0 0 0 0 0 0 0 0 0 0 0 0 0 0 0 0 0 0 0 0 0 0 0 0 0 0 0 0 0 0 0 0 0 0 0 0 0 0 0
0 0 0 0 0 0 0 0 0 0 0 0 0 0 0 0 0 0 0 0 0 0 0 0 0 0 0 0 0 0 0 0 0 0 0 0 0 0 0 0 0 0 0 0
0 0 0 0 0 0 0 0 0 0 0 0 0 0 0 0 0 0 0 0 0 0 0 0 0 0 0 0 0 0 0 0 0 0 0 0 0 0 0 0 0 0 0 0
0 0 0 0 0 0 0 0 0 0 0 0 0 0 0 0 0 0 0 0 0 0 0 0 0 0 0 0 0 0 0 0 0 0 0 0 0 0 0 0 0 0 0 0
0 0 0 0 0 0 0 0 0 0 0 0 0 0 0 0 0 0 0 0 0 0 0 0 0 0 0 0 0 0 0 0 0 0 0 0 0 0 0 0 0 0 0 0
0 0 0 0 0 0 0 0 0 -8 0 0 0 0 0 0 0 0 0 0 0 0 0 0 0 0 0 0 0 0 0 0 0 0 0 0 0 0 0 0 0 0 0 0
0 0 0 0 0 0 0 0 -1 -3 0 -2 0 0 0 0 0 0 0 0 0 0 0 0 0 0 0 0 0 0 0 0 0 0 0 0 0 0 0 0 0 0 0 0
0 0 0 0 0 0 0 0 0 -5 -4 -12 -5 -1 0 0 0 0 0 0 0 0 0 0 0 0 0 0 0 0 0 0 0 0 0 0 0 0 0 0 0 0 0 0
0 -3 0 0 0 0 0 0 0 0 0 -8 -2 0 0 0 0 0 0 0 0 0 0 0 0 0 0 0 0 0 0 0 0 0 0 0 0 0 0 0 0 0 0 0
0 0 0 0 0 0 0 0 0 0 0 0 0 0 0 0 0 0 0 0 0 0 0 0 0 0 0 0 0 0 0 0 0 0 0 0 0 0 0 0 0 0 0 0
0 0 0 0 0 0 0 0 0 0 0 0 0 0 0 0 0 0 0 0 0 0 0 0 0 0 0 0 0 0 0 0 0 0 0 0 0 0 0 0 0 0 0 0
0 0 0 0 0 0 0 0 0 0 0 0 0 0 0 0 0 0 0 0 0 0 0 0 0 0 0 0 0 0 0 0 0 0 0 0 0 0 0 0 0 0 0 0
0 0 0 0 0 0 0 0 0 0 0 0 0 0 0 0 0 0 0 0 0 0 0 0 0 0 0 0 0 0 0 0 0 0 0 0 0 0 0 0 0 0 0 0
0 0 0 0 0 0 0 0 0 0 0 0 0 0 0 0 0 0 0 0 0 0 0 0 0 0 0 0 0 0 0 0 0 0 0 0 0 0 0 0 0 0 0 0
0 0 0 0 0 0 0 0 0 0 0 0 0 0 0 0 0 0 0 0 0 0 0 0 0 0 0 0 0 0 0 0 0 0 0 0 0 0 0 0 0 0 0 0
0 0 0 0 0 0 0 0 0 0 0 0 0 0 0 0 0 0 0 0 0 0 0 0 0 0 0 0 0 0 0 0 0 0 0 0 0 0 0 0 0 0 0 0
0 0 0 0 0 0 0 0 0 0 0 0 0 0 0 0 0 0 0 0 0 0 0 0 0 0 0 0 0 0 0 0 0 0 0 0 0 0 0 0 0 0 0 0
0 0 0 0 0 0 0 0 0 0 0 0 0 0 0 0 0 0 0 0 0 0 0 0 0 0 0 0 0 0 0 0 0 0 0 0 0 0 0 0 0 0 0 0
0 0 0 0 0 0 0 0 0 0 0 0 0 0 0 0 0 0 0 0 0 0 0 0 0 0 0 0 0 0 0 0 0 0 0 0 0 0 0 0 0 0 0 0
0 0 0 0 0 0 0 0 0 0 0 0 0 0 0 0 0 0 0 0 0 0 0 0 0 0 0 0 0 0 0 0 0 0 0 0 0 0 0 0 0 0 0 0
0 0 0 0 0 0 0 0 0 0 0 0 0 0 0 0 0 0 0 0 0 0 0 0 0 0 0 0 0 0 0 0 0 0 0 0 0 0 0 0 0 0 0 0
0 0 0 0 0 0 0 0 0 0 0 0 0 0 0 0 0 0 0 0 0 0 0 0 0 0 0 0 0 0 0 0 0 0 0 0 0 0 0 0 0 0 0 0
Wind_Speed
19 21 22 22 18 21 26 28 31 33 37 38 38 39 43 37 33 35 30 20 21 23 24 26 27 29 29 27 25 25 24 23 21 20 19 21 22 22 23 23 24 22 21 22
21 25 21 21 23 26 29 34 35 33 27 31 35 42 38 37 28 22 18 18 19 20 23 26 28 28 27 26 25 24 23 23 23 21 21 20 20 21 21 23 22 22 22 22
22 23 17 22 24 26 27 30 31 31 30 31 34 35 28 25 21 21 21 18 19 20 21 23 24 25 25 26 26 25 25 24 24 23 21 21 20 20 22 24 22 22 22 21
22 20 19 21 23 21 26 25 26 29 33 34 30 39 30 24 26 21 19 19 19 20 20 21 22 23 24 25 26 26 26 26 25 25 22 21 21 22 24 25 24 25 24 23
19 17 17 20 20 18 25 25 27 30 32 36 32 34 30 22 22 19 18 18 19 19 20 21 21 22 24 25 26 26 26 27 26 26 25 23 23 23 24 25 25 26 25 25
20 18 19 20 20 21 23 28 29 30 29 39 33 29 34 26 20 16 16 17 17 18 19 19 19 21 23 24 25 26 26 27 27 27 27 26 26 25 26 27 28 28 28 27
26 24 22 21 23 23 24 28 36 37 34 37 29 33 33 29 18 15 15 16 16 17 18 19 20 21 22 24 25 26 26 27 27 27 27 27 27 27 27 28 29 30 31 31
34 36 20 20 22 25 23 25 31 39 38 39 34 37 33 23 17 15 16 15 16 18 18 19 21 22 24 25 26 26 27 27 28 28 28 28 28 28 28 29 31 31 32 33
28 30 20 20 20 20 25 30 25 32 34 40 36 30 25 21 19 17 18 18 18 18 19 20 22 24 24 25 27 28 29 29 30 30 30 30 30 30 30 30 32 32 33 34
25 36 25 22 20 22 24 19 31 30 41 44 39 37 36 27 26 22 20 20 18 19 21 23 25 26 26 26 27 28 30 31 32 33 33 33 33 34 34 33 34 34 34 36
21 28 29 25 26 26 26 28 27 29 29 41 46 42 27 27 21 22 22 22 20 22 23 23 23 23 25 26 28 28 29 31 33 34 35 36 36 37 38 39 39 39 39 39
23 29 39 35 24 24 26 29 28 37 39 36 41 45 25 25 19 21 23 24 24 24 24 26 27 27 29 31 31 31 31 33 33 33 34 36 37 38 41 41 42 43 44 43
23 31 41 41 32 25 29 28 27 29 33 43 47 46 25 24 24 27 28 30 28 28 27 27 28 30 31 31 32 32 32 32 34 35 36 38 40 42 42 44 45 46 47 47
21 30 35 43 35 29 35 35 34 33 40 42 44 46 45 45 41 40 38 32 30 29 28 30 30 30 31 32 33 33 34 34 34 35 39 43 44 45 45 48 49 49 49 50
23 37 34 36 36 37 39 43 42 42 42 46 50 49 46 46 46 40 34 30 30 31 31 31 31 32 33 34 34 35 37 38 39 42 44 47 48 49 50 50 51 51 52 53
23 38 36 43 37 39 45 43 43 45 46 47 46 50 43 39 36 35 33 32 32 32 32 32 32 33 35 36 37 37 38 39 40 42 46 49 51 53 54 56 57 57 56 56
29 32 37 48 38 39 50 44 43 40 38 40 45 41 37 40 39 34 33 33 34 35 34 33 33 34 34 34 34 36 37 38 41 46 49 51 52 53 54 55 57 59 61 62
31 32 33 44 38 56 43 34 32 36 36 34 36 38 39 38 33 32 32 33 32 30 31 33 32 33 32 30 32 34 37 40 44 46 48 49 50 53 55 58 60 62 62 63
26 29 38 43 45 45 46 36 34 38 45 34 41 41 36 32 33 33 29 28 30 31 32 30 29 28 28 30 33 36 39 41 43 45 46 47 51 55 57 59 60 60 62 64
24 26 34 39 48 56 42 30 26 31 52 37 37 39 34 31 40 36 30 32 33 32 29 27 25 27 29 31 34 37 39 40 44 44 48 51 53 54 57 57 58 58 57 60
32 32 39 43 48 46 36 30 27 45 50 37 33 33 29 32 32 31 35 35 31 29 26 25 26 29 31 32 35 38 40 43 42 46 49 51 53 55 54 55 54 56 57 57
36 38 41 40 47 55 29 28 36 37 32 31 30 29 29 31 33 36 36 33 30 27 25 25 28 31 31 32 35 38 40 41 44 47 50 52 51 50 50 52 53 53 52 51
39 35 39 36 39 30 23 30 31 30 31 31 32 33 34 34 33 32 31 29 26 24 25 26 29 31 31 32 34 40 41 43 45 49 52 50 47 46 47 50 51 49 44 43
37 35 42 44 39 39 39 35 34 31 32 34 33 33 31 30 30 31 30 27 26 25 27 28 31 33 33 33 35 38 40 42 46 50 49 46 45 46 46 46 45 42 39 38
39 37 42 46 43 42 40 37 36 34 32 32 32 30 30 29 29 30 30 27 26 27 28 30 32 32 33 34 36 38 40 43 48 48 45 43 43 45 46 43 43 39 33 31
37 42 46 50 40 38 37 33 34 32 31 33 33 33 28 28 31 29 27 27 28 28 30 30 30 32 33 34 37 39 40 43 46 46 42 42 43 43 43 45 44 38 34 31
Wind_Direction
316 314 312 314 312 317 318 316 316 317 317 315 314 314 314 317 316 316 322 333 336 340 343 345 345 343 340 342 342 339 335 329 324 315 309 304 297 294 292 292 290 286 282 278
312 304 308 314 314 314 314 313 315 320 327 324 320 316 321 322 331 338 345 345 343 343 343 343 345 348 350 349 349 348 346 341 334 330 323 319 310 307 303 299 299 296 289 283
301 314 326 318 317 315 315 315 318 319 324 324 325 323 329 343 350 352 352 354 353 353 354 356 356 357 357 358 356 353 350 348 343 337 332 326 322 319 314 309 306 305 301 295
312 317 314 319 320 320 319 327 323 322 322 320 330 319 325 327 328 337 346 351 356 357 4 8 6 1 358 356 356 357 356 354 352 349 342 339 331 320 318 317 310 308 308 304
322 325 323 321 321 325 320 326 324 321 317 316 319 316 325 330 326 333 341 349 354 359 360 1 5 6 3 358 356 355 355 355 352 351 347 341 335 329 324 322 319 316 313 309
318 327 322 318 320 319 324 323 320 317 317 310 316 312 318 324 322 330 340 347 350 351 355 1 2 2 1 359 356 354 351 348 348 347 345 344 340 332 325 320 316 316 316 314
314 313 313 316 313 320 320 319 315 311 310 309 319 314 311 323 328 327 331 339 344 346 348 350 349 352 354 353 352 352 352 349 346 343 343 340 337 335 330 324 319 316 312 310
307 307 319 321 312 314 314 316 311 309 308 308 314 308 313 334 341 344 340 340 339 337 339 339 339 341 341 341 341 342 342 340 337 337 337 336 333 331 328 323 321 318 316 313
307 307 323 323 323 320 316 309 318 309 309 305 306 311 321 327 331 335 329 329 328 330 331 331 333 335 337 336 335 335 333 331 332 332 327 324 325 325 324 323 321 318 318 316
306 302 308 312 316 318 312 317 310 311 304 302 305 305 306 311 313 318 319 321 325 327 327 325 324 324 328 329 329 329 328 327 324 325 322 319 320 318 318 319 316 315 317 318
307 301 304 310 307 306 310 305 308 307 304 302 302 303 321 321 317 315 316 317 317 318 319 321 323 325 322 322 324 325 326 325 323 320 318 317 317 316 314 313 312 312 312 312
302 303 296 298 308 310 306 303 303 299 302 301 301 299 318 322 321 320 314 311 312 311 312 312 312 315 315 316 318 319 320 321 322 321 319 316 314 313 312 312 312 311 309 309
300 298 297 300 306 309 301 304 306 308 306 297 297 300 314 321 318 314 310 308 307 307 308 308 310 310 312 314 317 319 320 320 319 319 318 318 315 313 311 312 309 308 307 306
303 294 292 291 300 309 302 303 305 305 300 300 295 299 299 303 308 308 306 303 303 304 305 306 308 309 310 312 314 314 317 319 319 318 316 314 311 309 310 308 306 305 305 304
300 293 294 295 298 300 297 296 296 296 296 295 297 297 298 304 306 308 309 306 305 304 303 304 304 306 308 310 311 312 313 314 315 314 314 313 312 311 309 308 306 306 303 301
300 295 298 295 298 298 295 294 297 295 296 295 295 295 302 306 308 308 307 307 307 307 309 311 308 306 307 307 307 309 311 313 314 313 313 313 312 311 310 308 306 305 304 303
296 296 298 295 301 301 296 296 296 297 297 300 299 303 308 306 306 307 309 309 308 308 309 309 310 313 314 313 313 314 315 316 315 314 313 313 313 311 311 310 308 305 303 301
295 295 296 297 301 293 300 308 306 302 302 303 305 307 307 308 310 311 313 312 313 313 312 311 313 315 317 318 319 320 320 319 318 317 317 317 316 315 313 311 308 306 305 302
286 289 294 295 293 299 301 305 303 302 301 305 307 307 308 309 311 310 316 315 314 314 313 314 316 318 320 320 320 320 320 320 321 320 321 322 320 317 315 313 311 309 307 304
289 284 287 295 295 295 306 310 313 312 300 308 307 308 306 308 305 308 314 315 312 312 314 315 319 321 321 321 322 322 322 323 321 323 322 321 321 319 317 316 314 312 310 307
296 292 283 288 293 298 301 306 313 302 306 314 312 312 308 306 308 314 316 315 314 313 312 315 317 317 319 322 323 321 322 322 325 324 324 323 322 321 320 318 317 315 313 310
291 292 293 293 294 296 303 308 301 308 313 313 313 312 310 309 308 311 313 313 314 312 313 315 316 317 321 323 324 323 324 326 326 326 326 325 325 325 324 323 322 320 317 315
290 289 295 292 297 305 305 306 308 310 308 309 309 308 307 307 308 311 313 315 315 313 313 315 317 318 321 324 325 323 325 328 328 327 327 327 328 329 329 327 325 324 323 321
294 295 291 293 294 295 298 301 302 303 303 306 307 307 307 307 309 310 311 310 311 312 313 314 315 316 319 323 325 326 329 330 329 328 329 330 331 331 332 332 331 329 328 326
293 297 293 292 295 298 298 299 302 302 305 306 308 307 306 307 309 310 310 309 311 312 314 315 316 317 319 323 325 329 330 331 330 331 331 333 334 334 335 336 336 333 331 328
292 289 291 292 297 298 300 302 307 304 305 309 308 307 307 307 310 312 312 312 312 312 314 314 316 318 320 323 326 329 331 331 331 331 333 334 335 337 338 336 338 340 335 333